N3WXO-1 Weather Reports


Display with metric or nautical units.
time (UTC)temp
F
wind
direction
speed
MPH
gust
MPH
rain 1hr
in
rain 24hr
in
rain mn
in
humidity
%
barometer
mb
20260506201522 62 234 0.0 3.0 0.00 0.40 0.40 95 1006.7
20260506201026 62 235 0.0 3.0 0.00 0.40 0.40 95 1006.5
20260506200521 62 236 0.0 4.0 0.00 0.40 0.40 95 1006.6
20260506200032 62 235 0.0 4.0 0.00 0.40 0.40 95 1006.7
20260506195520 62 238 0.0 4.0 0.00 0.40 0.40 95 1006.7
20260506195029 62 234 0.0 5.0 0.00 0.40 0.40 95 1006.7
20260506194518 62 232 0.0 5.0 0.00 0.40 0.40 95 1006.8
20260506194024 62 231 0.0 5.0 0.00 0.40 0.40 95 1006.9
20260506193513 62 235 1.0 5.0 0.01 0.40 0.40 95 1006.9
20260506193023 62 230 0.0 0.0 0.01 0.40 0.40 96 1006.9
20260506192531 62 230 0.0 0.0 0.01 0.40 0.40 96 1006.9
20260506192024 62 230 0.0 0.0 0.01 0.40 0.40 96 1007.1
20260506191536 62 230 0.0 7.0 0.02 0.40 0.40 95 1007.1
20260506191022 62 231 2.0 7.0 0.02 0.40 0.40 95 1007.1
20260506190532 62 209 2.0 8.0 0.02 0.40 0.40 96 1007.1
20260506190018 62 253 0.0 8.0 0.03 0.40 0.40 96 1007.2
20260506185522 61 235 1.0 6.0 0.03 0.40 0.40 96 1007.2
20260506185032 61 231 1.0 5.0 0.04 0.40 0.40 96 1007.3
20260506184516 61 242 0.0 7.0 0.05 0.40 0.40 96 1007.3
20260506184026 61 243 1.0 6.0 0.05 0.39 0.39 96 1007.4
20260506183514 61 216 0.0 5.0 0.06 0.39 0.39 96 1007.4
20260506183019 61 224 1.0 5.0 0.07 0.39 0.39 96 1007.5
20260506182526 61 228 0.0 5.0 0.08 0.39 0.39 95 1007.5
20260506182032 61 226 0.0 3.0 0.09 0.39 0.39 96 1007.5
20260506181543 61 226 0.0 3.0 0.08 0.38 0.38 96 1007.5
20260506181018 61 233 1.0 4.0 0.09 0.38 0.38 96 1007.6
20260506180524 61 232 0.0 4.0 0.09 0.38 0.38 96 1007.6
20260506180031 61 226 0.0 6.0 0.09 0.37 0.37 96 1007.6
20260506175513 61 226 1.0 6.0 0.09 0.37 0.37 96 1007.6
20260506175022 61 201 1.0 5.0 0.09 0.36 0.36 96 1007.6
20260506174531 61 220 0.0 10.0 0.09 0.35 0.35 95 1007.6
20260506174035 61 221 0.0 0.0 0.09 0.34 0.34 95 1007.7
20260506173528 61 221 0.0 0.0 0.09 0.33 0.33 95 1007.7
20260506173040 61 221 0.0 0.0 0.08 0.32 0.32 95 1007.7
20260506172542 61 221 0.0 0.0 0.07 0.31 0.31 95 1007.7
20260506172027 61 221 0.0 4.0 0.07 0.30 0.30 95 1007.8
20260506171515 61 221 1.0 4.0 0.07 0.30 0.30 95 1007.8
20260506171023 61 220 0.0 5.0 0.06 0.29 0.29 95 1007.8
20260506170532 61 219 0.0 6.0 0.06 0.29 0.29 95 1007.8
20260506170023 61 231 2.0 8.0 0.06 0.28 0.28 95 1007.8
20260506165530 61 232 0.0 8.0 0.06 0.28 0.28 95 1007.8
20260506165024 61 223 0.0 7.0 0.05 0.27 0.27 95 1007.8
20260506164530 61 224 0.0 7.0 0.04 0.26 0.26 94 1007.8
20260506164041 61 212 1.0 6.0 0.04 0.25 0.25 94 1007.8
20260506163518 61 185 1.0 6.0 0.04 0.24 0.24 94 1008.0
20260506163027 61 218 1.0 6.0 0.05 0.24 0.24 94 1007.9
20260506162517 61 207 0.0 7.0 0.06 0.24 0.24 94 1008.0
20260506162027 61 238 1.0 7.0 0.07 0.23 0.23 94 1008.0
20260506161532 61 239 1.0 6.0 0.07 0.23 0.23 94 1007.9
20260506161018 61 229 2.0 6.0 0.08 0.23 0.23 94 1007.9
20260506160525 61 232 0.0 9.0 0.09 0.23 0.23 94 1008.0
20260506160015 61 184 1.0 9.0 0.09 0.22 0.22 94 1008.0
20260506155524 61 220 2.0 14.0 0.09 0.22 0.22 94 1008.0
20260506155031 61 193 6.0 14.0 0.10 0.22 0.22 94 1008.1
20260506154513 61 200 0.0 5.0 0.10 0.22 0.22 94 1008.1
20260506154021 61 203 2.0 5.0 0.09 0.20 0.20 94 1008.1
20260506153530 61 157 0.0 10.0 0.09 0.20 0.20 94 1008.1
20260506153022 61 127 1.0 10.0 0.09 0.19 0.19 94 1008.1
20260506152515 61 210 0.0 11.0 0.07 0.17 0.17 94 1008.5
20260506152017 61 208 1.0 11.0 0.06 0.16 0.16 93 1008.7
20260506151521 61 217 1.0 9.0 0.06 0.15 0.15 93 1008.8
20260506151014 61 210 0.0 4.0 0.07 0.15 0.15 93 1008.6
20260506150525 61 221 0.0 5.0 0.06 0.14 0.14 94 1008.5
20260506150033 61 199 1.0 5.0 0.06 0.13 0.13 94 1008.4
20260506145523 61 198 1.0 7.0 0.07 0.13 0.13 94 1008.4
20260506145029 61 150 2.0 8.0 0.06 0.12 0.12 94 1008.2
20260506144538 61 209 1.0 8.0 0.06 0.12 0.12 93 1008.3
20260506144016 61 167 1.0 7.0 0.05 0.11 0.11 93 1008.3
20260506143523 61 174 1.0 7.0 0.06 0.11 0.11 93 1008.3
20260506143014 61 199 0.0 3.0 0.06 0.10 0.10 93 1008.2
20260506142521 61 175 0.0 6.0 0.06 0.10 0.10 93 1008.4
20260506142030 61 165 0.0 6.0 0.07 0.10 0.10 93 1008.5
20260506141516 61 214 0.0 7.0 0.06 0.09 0.09 93 1008.7
20260506141027 61 218 0.0 7.0 0.06 0.08 0.08 92 1008.8
20260506140519 61 238 1.0 7.0 0.06 0.08 0.08 92 1008.8
20260506140024 61 185 0.0 9.0 0.06 0.07 0.07 92 1008.8
20260506135515 61 187 1.0 9.0 0.05 0.06 0.06 92 1008.7
20260506135026 61 220 0.0 10.0 0.05 0.06 0.06 91 1008.7
20260506134514 62 199 1.0 5.0 0.05 0.06 0.06 91 1008.5
20260506134023 62 236 1.0 6.0 0.04 0.05 0.05 91 1008.7
20260506133517 62 204 0.0 7.0 0.04 0.05 0.05 90 1008.8
20260506133020 62 204 1.0 7.0 0.04 0.04 0.04 90 1008.9
20260506132524 62 220 2.0 7.0 0.04 0.04 0.04 89 1008.9
20260506132015 62 234 1.0 7.0 0.03 0.03 0.03 88 1008.9
20260506131525 62 220 1.0 9.0 0.03 0.03 0.03 88 1008.9
20260506131032 62 206 3.0 10.0 0.02 0.02 0.02 87 1008.9
20260506130518 63 187 1.0 8.0 0.02 0.02 0.02 87 1009.0
20260506130023 63 207 0.0 5.0 0.01 0.01 0.01 87 1009.0
20260506125514 63 187 0.0 6.0 0.01 0.01 0.01 86 1009.0
20260506125025 63 200 1.0 8.0 0.01 0.01 0.01 85 1009.0
20260506124521 63 197 2.0 8.0 0.01 0.01 0.01 85 1008.9
20260506124014 64 226 0.0 4.0 0.01 0.01 0.01 85 1008.9
20260506123519 64 226 1.0 9.0 0.01 0.01 0.01 84 1008.8
20260506123026 64 220 0.0 9.0 0.00 0.00 0.00 84 1008.8
20260506122518 64 213 3.0 9.0 0.00 0.00 0.00 83 1008.8
20260506122026 64 227 2.0 7.0 0.00 0.00 0.00 84 1008.8
20260506121532 63 234 0.0 7.0 0.00 0.00 0.00 84 1008.7
20260506121024 63 237 2.0 7.0 0.00 0.00 0.00 83 1008.7
20260506120523 63 227 1.0 5.0 0.00 0.00 0.00 83 1008.6
20260506120017 63 211 0.0 1.0 0.00 0.00 0.00 84 1008.7
20260506115533 63 214 0.0 5.0 0.00 0.00 0.00 84 1008.7
20260506115026 63 215 0.0 5.0 0.00 0.00 0.00 83 1008.7
20260506114513 63 205 0.0 4.0 0.00 0.00 0.00 82 1008.7
20260506114022 64 205 0.0 5.0 0.00 0.00 0.00 82 1008.8
20260506113532 63 213 0.0 5.0 0.00 0.00 0.00 81 1008.7
20260506113025 63 220 0.0 5.0 0.00 0.00 0.00 81 1008.8
20260506112519 63 221 1.0 5.0 0.00 0.00 0.00 80 1008.7
20260506112024 63 213 0.0 4.0 0.00 0.00 0.00 80 1008.8
20260506111516 63 213 0.0 4.0 0.00 0.00 0.00 80 1008.8
20260506111025 63 206 0.0 4.0 0.00 0.00 0.00 80 1008.7
20260506110533 63 205 0.0 0.0 0.00 0.00 0.00 80 1008.6
20260506110024 63 205 0.0 0.0 0.00 0.00 0.00 80 1008.5
20260506105533 63 205 0.0 3.0 0.00 0.00 0.00 80 1008.4
20260506105021 62 205 0.0 3.0 0.00 0.00 0.00 80 1008.4
20260506104515 62 206 0.0 5.0 0.00 0.00 0.00 80 1008.2
20260506104023 62 206 0.0 5.0 0.00 0.00 0.00 81 1008.2
20260506103537 61 182 0.0 2.0 0.00 0.00 0.00 81 1008.1
20260506103024 61 180 0.0 1.0 0.00 0.00 0.00 81 1008.1
20260506102529 61 180 0.0 1.0 0.00 0.00 0.00 81 1008.0
20260506102016 61 178 0.0 5.0 0.00 0.00 0.00 81 1008.0
20260506101525 61 178 0.0 5.0 0.00 0.00 0.00 80 1007.9
20260506101013 61 224 0.0 0.0 0.00 0.00 0.00 80 1008.0
20260506100519 61 224 0.0 0.0 0.00 0.00 0.00 79 1008.0
20260506100025 61 224 0.0 0.0 0.00 0.00 0.00 79 1008.0
20260506095514 61 224 0.0 0.0 0.00 0.00 0.00 79 1008.0
20260506095023 61 224 0.0 0.0 0.00 0.00 0.00 78 1008.1
20260506094515 61 224 0.0 0.0 0.00 0.00 0.00 78 1008.1
20260506094026 61 224 0.0 0.0 0.00 0.00 0.00 78 1008.2
20260506093532 62 224 0.0 0.0 0.00 0.00 0.00 78 1008.2
20260506093018 62 224 0.0 0.0 0.00 0.00 0.00 77 1008.1
20260506092525 62 224 0.0 0.0 0.00 0.00 0.00 77 1008.1
20260506092033 62 224 0.0 0.0 0.00 0.00 0.00 75 1008.1
20260506091520 62 224 0.0 0.0 0.00 0.00 0.00 74 1008.2
20260506091024 63 224 0.0 0.0 0.00 0.00 0.00 73 1008.2
20260506090513 63 224 0.0 0.0 0.00 0.00 0.00 73 1008.2
20260506090030 63 224 0.0 0.0 0.00 0.08 0.00 73 1008.2
20260506085515 63 224 0.0 0.0 0.00 0.08 0.00 73 1008.1
20260506085023 63 224 0.0 0.0 0.00 0.08 0.00 72 1008.2
20260506084534 63 224 0.0 4.0 0.00 0.08 0.00 72 1008.2
20260506084022 64 225 0.0 1.0 0.00 0.08 0.00 71 1008.2
20260506083526 64 225 0.0 0.0 0.00 0.08 0.00 71 1008.3
20260506083033 64 225 0.0 5.0 0.00 0.08 0.00 71 1008.3
20260506082518 64 225 1.0 5.0 0.00 0.08 0.00 71 1008.3
20260506082028 64 227 0.0 5.0 0.00 0.08 0.00 71 1008.3
20260506081520 64 226 0.0 1.0 0.00 0.08 0.00 71 1008.3
20260506081025 64 226 0.0 1.0 0.00 0.08 0.00 71 1008.3
20260506080531 64 226 0.0 1.0 0.00 0.08 0.00 70 1008.3
20260506073528 65 234 0.0 4.0 0.00 0.08 0.00 68 1008.3
20260506073031 65 234 0.0 4.0 0.00 0.08 0.00 68 1008.3
20260506072524 65 236 0.0 3.0 0.00 0.08 0.00 68 1008.4
20260506072030 64 234 0.0 2.0 0.00 0.08 0.00 68 1008.5
20260506071517 64 235 0.0 6.0 0.00 0.08 0.00 68 1008.5
20260506071027 64 224 0.0 10.0 0.00 0.08 0.00 69 1008.4
20260506070513 63 221 2.0 10.0 0.00 0.08 0.00 70 1008.5
20260506062021 61 240 0.0 0.0 0.00 0.08 0.00 73 1009.0
20260506061517 61 240 0.0 1.0 0.00 0.08 0.00 72 1009.0
20260506061026 61 240 0.0 1.0 0.00 0.08 0.00 73 1009.0
20260506060531 60 240 0.0 5.0 0.00 0.08 0.00 73 1009.1
20260506051031 59 230 0.0 0.0 0.00 0.08 0.00 79 1009.5
20260506050518 59 230 0.0 0.0 0.00 0.08 0.00 79 1009.5
20260506045023 59 230 0.0 0.0 0.00 0.08 0.00 78 1009.5
20260506044534 59 230 0.0 0.0 0.00 0.08 0.00 77 1009.6
20260506044019 59 230 0.0 0.0 0.00 0.08 0.00 75 1009.5
20260506043526 60 230 0.0 0.0 0.00 0.08 0.00 75 1009.5
20260506043031 60 230 0.0 0.0 0.00 0.08 0.00 76 1009.5
20260506042522 60 230 0.0 0.0 0.00 0.08 0.00 74 1009.5
20260506042023 60 230 0.0 0.0 0.00 0.08 0.00 75 1009.5
20260506041529 61 230 0.0 0.0 0.00 0.08 0.00 73 1009.4
20260506041035 61 230 0.0 0.0 0.00 0.08 0.00 72 1009.4
20260506040523 61 230 0.0 0.0 0.00 0.08 0.00 71 1009.4
20260506040033 62 230 0.0 0.0 0.00 0.08 0.08 71 1009.5
20260506035533 62 230 0.0 0.0 0.00 0.08 0.08 69 1009.4
20260506035021 62 230 0.0 0.0 0.00 0.08 0.08 68 1009.4
20260506034514 63 230 0.0 0.0 0.00 0.08 0.08 68 1009.4
20260506034024 63 230 0.0 0.0 0.00 0.08 0.08 68 1009.4
20260506033519 63 230 0.0 0.0 0.00 0.08 0.08 66 1009.3
20260506033031 64 230 0.0 0.0 0.00 0.08 0.08 66 1009.3
20260506032533 64 231 0.0 0.0 0.00 0.08 0.08 63 1009.3
20260506032022 64 230 0.0 0.0 0.00 0.08 0.08 64 1009.3
20260506031514 64 230 0.0 0.0 0.00 0.08 0.08 64 1009.2
20260506031024 65 230 0.0 0.0 0.00 0.08 0.08 63 1009.2
20260506030531 65 230 0.0 5.0 0.00 0.08 0.08 63 1009.1
20260506030023 65 231 0.0 5.0 0.00 0.08 0.08 62 1009.2
20260506025531 65 201 0.0 0.0 0.00 0.08 0.08 61 1009.1
20260506025021 66 201 0.0 0.0 0.00 0.08 0.08 61 1009.2
20260506024515 66 201 0.0 0.0 0.00 0.08 0.08 61 1009.3
20260506024026 66 201 0.0 3.0 0.00 0.08 0.08 60 1009.3
20260506023517 66 201 0.0 5.0 0.00 0.08 0.08 59 1009.2
20260506023026 67 199 0.0 3.0 0.00 0.08 0.08 59 1009.2
20260506022514 67 198 0.0 4.0 0.00 0.08 0.08 60 1009.2
20260506022028 68 200 1.0 4.0 0.00 0.08 0.08 59 1009.2
20260506021518 69 191 1.0 3.0 0.00 0.08 0.08 56 1009.1
20260506021031 70 197 0.0 6.0 0.00 0.08 0.08 52 1009.0
20260506020520 70 196 2.0 6.0 0.00 0.08 0.08 51 1009.1
20260506020032 71 223 0.0 0.0 0.00 0.08 0.08 51 1009.1
20260506015526 71 225 0.0 0.0 0.00 0.08 0.08 51 1009.1
20260506015015 72 225 0.0 1.0 0.00 0.08 0.08 50 1009.1
20260506014527 72 225 0.0 2.0 0.00 0.08 0.08 48 1009.0
20260506014020 73 224 0.0 1.0 0.00 0.08 0.08 48 1009.0
20260506013531 73 224 0.0 5.0 0.00 0.08 0.08 48 1008.9
20260506013031 74 226 1.0 5.0 0.00 0.08 0.08 46 1008.9
20260506012526 74 191 0.0 3.0 0.00 0.08 0.08 46 1008.9
20260506012022 74 183 0.0 2.0 0.00 0.08 0.08 46 1008.7
20260506011520 74 182 0.0 5.0 0.00 0.08 0.08 46 1008.7
20260506011028 74 179 1.0 5.0 0.00 0.08 0.08 45 1008.6
20260506010519 75 212 0.0 5.0 0.00 0.08 0.08 46 1008.5
20260506010013 75 211 1.0 5.0 0.00 0.08 0.08 45 1008.4
20260506005527 75 196 1.0 5.0 0.00 0.08 0.08 44 1008.4
20260506005021 75 202 0.0 10.0 0.00 0.08 0.08 45 1008.3
20260506004518 75 205 2.0 10.0 0.00 0.08 0.08 44 1008.3
20260506004015 75 207 2.0 9.0 0.00 0.08 0.08 44 1008.2
20260506003529 75 241 2.0 7.0 0.00 0.08 0.08 44 1008.2
20260506003025 75 228 0.0 4.0 0.00 0.08 0.08 44 1008.2
20260506002519 75 222 0.0 5.0 0.00 0.08 0.08 44 1008.2
20260506002028 76 223 1.0 8.0 0.00 0.08 0.08 44 1008.2
20260506001520 76 250 2.0 9.0 0.00 0.08 0.08 43 1008.1
20260506001025 76 201 1.0 9.0 0.00 0.08 0.08 42 1008.0
20260506000514 77 207 1.0 10.0 0.00 0.08 0.08 42 1008.0
20260506000025 77 235 4.0 10.0 0.00 0.08 0.08 41 1007.9
20260505235517 78 139 0.0 8.0 0.00 0.08 0.08 41 1007.9
20260505235029 78 203 2.0 8.0 0.00 0.08 0.08 42 1007.8
20260505234519 78 184 1.0 8.0 0.00 0.08 0.08 42 1007.8
20260505234030 78 227 3.0 9.0 0.00 0.08 0.08 41 1007.8
20260505233520 78 225 1.0 12.0 0.00 0.08 0.08 42 1007.7
20260505233022 78 236 6.0 12.0 0.00 0.08 0.08 41 1007.7
20260505232533 78 195 2.0 11.0 0.00 0.08 0.08 42 1007.6
20260505232023 78 230 3.0 14.0 0.00 0.08 0.08 41 1007.6
20260505231530 78 170 3.0 14.0 0.00 0.08 0.08 41 1007.5
20260505231018 78 219 2.0 10.0 0.00 0.08 0.08 42 1007.6
20260505230530 78 219 1.0 18.0 0.00 0.08 0.08 42 1007.7
20260505230026 78 178 4.0 18.0 0.00 0.08 0.08 41 1007.5
20260505225518 78 225 1.0 9.0 0.00 0.08 0.08 42 1007.5
20260505225017 78 217 2.0 10.0 0.00 0.08 0.08 41 1007.5
20260505224531 79 246 3.0 10.0 0.00 0.08 0.08 41 1007.4
20260505224023 79 220 0.0 6.0 0.00 0.08 0.08 39 1007.3
20260505223518 79 215 2.0 10.0 0.00 0.08 0.08 38 1007.2
20260505223035 79 218 6.0 16.0 0.00 0.08 0.08 38 1007.2
20260505222523 79 226 7.0 16.0 0.00 0.08 0.08 38 1007.4
20260505222019 79 233 7.0 17.0 0.00 0.08 0.08 37 1007.3
20260505221513 79 213 3.0 19.0 0.00 0.08 0.08 37 1007.3
20260505221028 79 214 6.0 14.0 0.00 0.08 0.08 37 1007.1
20260505220520 79 240 6.0 16.0 0.00 0.08 0.08 38 1007.1
20260505220029 79 215 9.0 17.0 0.00 0.08 0.08 37 1007.0
20260505215521 79 255 6.0 12.0 0.00 0.08 0.08 38 1006.9
20260505215030 79 226 6.0 13.0 0.00 0.08 0.08 39 1007.0
20260505214522 79 231 1.0 8.0 0.00 0.08 0.08 41 1007.0
20260505214032 79 211 1.0 11.0 0.00 0.08 0.08 40 1007.0
20260505213028 79 220 2.0 13.0 0.00 0.08 0.08 42 1007.1
20260505212521 79 201 1.0 13.0 0.00 0.08 0.08 41 1007.2
20260505212029 79 226 1.0 22.0 0.00 0.08 0.08 42 1007.1
20260505211520 80 76 4.0 22.0 0.00 0.08 0.08 41 1007.0
20260505211032 80 188 10.0 22.0 0.00 0.08 0.08 39 1007.1
20260505210516 81 230 3.0 18.0 0.00 0.08 0.08 40 1007.0
20260505210027 82 230 4.0 18.0 0.00 0.08 0.08 39 1007.0
20260505205516 82 220 4.0 17.0 0.00 0.08 0.08 39 1007.0
20260505205027 82 223 7.0 15.0 0.00 0.08 0.08 38 1007.0
20260505204521 83 159 5.0 14.0 0.00 0.08 0.08 39 1006.9
20260505204030 83 210 5.0 20.0 0.00 0.08 0.08 39 1007.1
20260505203514 83 198 9.0 20.0 0.00 0.08 0.08 39 1007.0
20260505203027 83 237 5.0 15.0 0.00 0.08 0.08 40 1007.1
20260505202541 83 173 7.0 15.0 0.00 0.08 0.08 39 1007.0
20260505202021 83 227 2.0 19.0 0.00 0.08 0.08 40 1007.0